SP2WM Weather Reports


time (UTC)temp
C
wind
direction
speed
KPH
gust
KPH
rain 1hr
cm
rain 24hr
cm
rain mn
cm
humidity
%
barometer
mb
20260506224041 10 143 0.0 0.0 0.00 0.10 0.03 85 1005.3
20260506223035 10 143 0.0 1.6 0.00 0.10 0.03 85 1005.5
20260506222032 10 143 0.0 6.4 0.00 0.10 0.03 85 1005.3
20260506221043 10 143 3.2 9.7 0.00 0.10 0.03 84 1004.8
20260506220041 11 143 3.2 8.0 0.00 0.10 0.03 84 1004.3
20260506215040 11 143 3.2 14.5 0.00 0.10 0.03 85 1004.2
20260506214028 11 143 8.0 12.9 0.00 0.10 0.03 84 1004.0
20260506213030 12 143 0.0 8.0 0.00 0.10 0.03 86 1004.2
20260506212027 12 143 1.6 9.7 0.00 0.10 0.03 86 1004.0
20260506211033 12 143 4.8 8.0 0.00 0.10 0.03 85 1004.0
20260506210032 13 143 0.0 3.2 0.00 0.10 0.03 86 1003.9
20260506205032 13 143 0.0 4.8 0.00 0.10 0.03 85 1003.7
20260506204043 13 143 1.6 8.0 0.00 0.10 0.03 84 1003.8
20260506203040 13 143 1.6 11.3 0.00 0.10 0.03 84 1003.8
20260506202039 14 143 4.8 11.3 0.00 0.10 0.03 83 1003.9
20260506201026 15 143 4.8 6.4 0.00 0.10 0.03 83 1003.8
20260506200024 15 143 0.0 4.8 0.00 0.10 0.03 81 1003.8
20260506195028 15 143 1.6 16.1 0.00 0.10 0.03 80 1003.7
20260506194036 15 143 0.0 3.2 0.00 0.10 0.03 79 1003.7
20260506193034 15 143 0.0 1.6 0.00 0.10 0.03 78 1003.5
20260506192032 16 143 0.0 1.6 0.00 0.10 0.03 77 1003.4
20260506191024 16 143 0.0 1.6 0.00 0.10 0.03 75 1003.4
20260506190043 17 143 0.0 1.6 0.00 0.10 0.03 74 1003.3
20260506185041 17 143 0.0 3.2 0.00 0.10 0.03 73 1003.2
20260506184026 17 143 1.6 3.2 0.00 0.10 0.03 71 1003.2
20260506183043 18 143 0.0 3.2 0.00 0.10 0.03 69 1002.9
20260506181121 20 143 3.2 8.0 0.00 0.10 0.03 64 1002.7
20260506180027 20 143 3.2 8.0 0.00 0.10 0.03 62 1002.6
20260506175026 20 143 4.8 12.9 0.00 0.10 0.03 60 1002.6
20260506174035 20 143 1.6 4.8 0.00 0.10 0.03 60 1002.5
20260506173034 20 143 1.6 6.4 0.00 0.10 0.03 60 1002.4
20260506172038 21 143 1.6 16.1 0.00 0.10 0.03 59 1002.5
20260506171027 21 143 3.2 14.5 0.00 0.10 0.03 59 1002.4
20260506170042 21 143 1.6 6.4 0.00 0.10 0.03 58 1002.3
20260506165038 21 143 1.6 8.0 0.00 0.10 0.03 59 1002.4
20260506164028 21 143 1.6 8.0 0.00 0.10 0.03 59 1002.3
20260506163026 20 143 1.6 4.8 0.00 0.10 0.03 60 1002.3
20260506162041 20 143 3.2 9.7 0.00 0.10 0.03 60 1002.4
20260506161027 21 143 4.8 8.0 0.00 0.10 0.03 59 1002.4
20260506160024 20 143 3.2 11.3 0.00 0.10 0.03 59 1002.4
20260506155025 20 143 1.6 8.0 0.00 0.10 0.03 60 1002.5
20260506154033 20 143 3.2 6.4 0.00 0.10 0.03 60 1002.6
20260506153033 20 143 3.2 8.0 0.00 0.10 0.03 60 1002.6
20260506152031 20 143 4.8 12.9 0.00 0.10 0.03 59 1002.8
20260506151038 20 143 3.2 9.7 0.00 0.10 0.03 59 1002.9
20260506150039 20 143 3.2 12.9 0.00 0.10 0.03 59 1002.8
20260506145037 20 143 3.2 8.0 0.00 0.10 0.03 60 1002.8
20260506144043 20 143 1.6 9.7 0.00 0.10 0.03 60 1003.0
20260506143043 20 143 1.6 8.0 0.00 0.10 0.03 60 1003.0
20260506142025 20 143 3.2 11.3 0.00 0.10 0.03 60 1003.1
20260506141034 20 143 4.8 11.3 0.00 0.10 0.03 60 1003.2
20260506140031 20 143 6.4 12.9 0.00 0.10 0.03 59 1003.1
20260506135026 20 143 6.4 16.1 0.00 0.10 0.03 59 1003.1
20260506134027 20 143 6.4 19.3 0.00 0.10 0.03 57 1003.0
20260506132037 21 143 6.4 24.1 0.10 0.10 0.03 55 1002.8
20260506131043 21 144 6.4 17.7 0.10 0.30 0.03 57 1002.8
20260506125042 21 144 9.7 25.7 0.10 0.30 0.03 55 1002.8
20260506124031 20 143 9.7 29.0 0.10 0.30 0.03 58 1002.9
20260506123029 20 144 4.8 19.3 0.00 0.20 0.00 60 1002.9
20260506122028 20 144 9.7 22.5 0.00 0.20 0.00 60 1002.6
20260506121033 20 143 9.7 17.7 0.00 0.20 0.00 59 1002.5
20260506120030 20 143 8.0 22.5 0.00 0.20 0.00 58 1002.5
20260506115029 20 143 9.7 17.7 0.00 0.20 0.00 59 1002.4
20260506114036 20 144 8.0 16.1 0.00 0.20 0.00 59 1002.3
20260506113033 21 144 8.0 24.1 0.00 0.20 0.00 58 1002.3
20260506112033 21 144 6.4 20.9 0.00 0.20 0.00 59 1002.0
20260506111040 20 144 8.0 14.5 0.00 0.20 0.00 58 1002.0
20260506110040 20 143 4.8 20.9 0.00 0.20 0.00 60 1002.0
20260506105038 20 146 8.0 22.5 0.00 0.20 0.00 60 1001.9
20260506104028 20 144 8.0 16.1 0.00 0.20 0.00 60 1002.0
20260506103027 20 145 8.0 12.9 0.00 0.20 0.00 59 1001.9
20260506102028 20 145 3.2 12.9 0.00 0.20 0.00 61 1001.8
20260506101034 20 145 3.2 11.3 0.00 0.20 0.00 62 1001.8
20260506100114 20 145 4.8 11.3 0.00 0.20 0.00 61 1001.8
20260506095027 20 145 3.2 9.7 0.00 0.20 0.00 62 1001.7
20260506094035 19 145 4.8 14.5 0.00 0.20 0.00 63 1001.7
20260506093033 19 145 6.4 16.1 0.00 0.20 0.00 63 1001.6
20260506092035 18 145 3.2 14.5 0.00 0.20 0.00 65 1001.7
20260506091043 18 144 1.6 9.7 0.00 0.20 0.00 65 1001.7
20260506090042 18 144 4.8 12.9 0.00 0.20 0.00 66 1001.7
20260506085038 17 144 6.4 16.1 0.00 0.20 0.00 66 1001.7
20260506084028 17 144 3.2 19.3 0.00 0.20 0.00 65 1001.7
20260506082036 17 146 6.4 19.3 0.00 0.20 0.00 64 1001.9
20260506081043 18 144 8.0 12.9 0.00 0.20 0.00 63 1001.6
20260506073025 16 143 1.6 11.3 0.00 0.20 0.00 69 1001.5
20260506072043 15 143 8.0 14.5 0.00 0.20 0.00 70 1001.4
20260506071030 15 143 3.2 11.3 0.00 0.20 0.00 71 1001.5
20260506062037 13 143 3.2 11.3 0.00 0.20 0.00 76 1002.1
20260506061028 13 143 4.8 11.3 0.00 0.20 0.00 75 1002.2
20260506051032 12 143 1.6 4.8 0.00 0.20 0.00 80 1002.8
20260506045025 11 143 0.0 8.0 0.00 0.20 0.00 82 1002.7
20260506044032 11 143 1.6 9.7 0.00 0.20 0.00 83 1002.9
20260506043035 11 143 3.2 8.0 0.00 0.20 0.00 84 1002.8
20260506042035 11 143 1.6 8.0 0.00 0.20 0.00 84 1002.8
20260506041040 11 143 0.0 6.4 0.00 0.20 0.05 85 1003.2
20260506040038 10 143 1.6 4.8 0.00 0.20 0.05 86 1003.2
20260506035040 10 143 1.6 6.4 0.00 0.20 0.05 87 1003.2
20260506034025 10 143 1.6 4.8 0.00 0.20 0.05 87 1003.3
20260506033025 10 143 1.6 4.8 0.00 0.20 0.05 87 1003.3
20260506032042 10 143 1.6 4.8 0.00 0.20 0.05 88 1003.4
20260506031029 10 143 1.6 4.8 0.00 0.20 0.05 88 1003.6
20260506030026 10 143 0.0 3.2 0.00 0.20 0.05 88 1003.6
20260506025026 10 143 1.6 3.2 0.00 0.20 0.05 89 1003.7
20260506024031 10 143 1.6 4.8 0.00 0.20 0.05 89 1003.7
20260506023044 10 143 1.6 4.8 0.00 0.20 0.05 89 1003.7
20260506022040 10 143 0.0 1.6 0.00 0.20 0.05 89 1003.9
20260506021030 10 143 0.0 3.2 0.00 0.20 0.05 89 1004.0
20260506020025 10 143 1.6 3.2 0.00 0.20 0.05 89 1004.1
20260506015039 10 143 1.6 3.2 0.00 0.20 0.05 88 1004.3
20260506014026 10 143 1.6 3.2 0.00 0.20 0.05 88 1004.3
20260506013025 10 143 0.0 1.6 0.00 0.20 0.05 87 1004.4
20260506012026 10 143 0.0 1.6 0.00 0.20 0.05 87 1004.5
20260506011032 11 143 0.0 4.8 0.00 0.20 0.05 87 1004.6
20260506005042 11 143 0.0 1.6 0.00 0.20 0.05 85 1004.5
20260506004029 11 143 1.6 6.4 0.00 0.20 0.05 85 1004.5
20260506003026 11 143 0.0 1.6 0.00 0.20 0.05 84 1004.4
20260506002024 11 143 0.0 1.6 0.00 0.20 0.05 84 1004.5
20260506001025 11 143 0.0 1.6 0.00 0.20 0.05 84 1004.5
20260506000024 11 143 0.0 1.6 0.00 0.20 0.05 84 1004.5
20260505235040 11 143 0.0 1.6 0.00 0.20 0.05 84 1004.5
20260505234033 11 143 0.0 1.6 0.00 0.20 0.05 83 1004.5
20260505233030 11 143 0.0 1.6 0.00 0.20 0.05 83 1004.6
20260505232031 11 143 0.0 1.6 0.00 0.20 0.05 82 1004.6
20260505231036 11 143 0.0 1.6 0.00 0.20 0.05 82 1004.6
20260505230033 11 143 0.0 1.6 0.00 0.20 0.05 81 1004.7
20260505225036 11 143 0.0 1.6 0.00 0.20 0.05 81 1004.6